World > North America > United States > North Carolina

Hourly Tamarack, NC Regional Weather

Feedback E-mail the Weather

Quick WX

Tamarack, NC Weather Maps

°F °C°F °C
Tamarack Weather Map
UTC Time: 6/26/2022, 07:35
Your Time:

Tamarack, NC Regional Weather

Expires:202206260800;;205112
ASUS42 KRAH 260710
RWRRAH
NORTH CAROLINA WEATHER ROUNDUP
NATIONAL WEATHER SERVICE RALEIGH NC
300 AM EDT SUN JUN 26 2022

NOTE: "FAIR" INDICATES FEW OR NO CLOUDS BELOW 12,000 FEET WITH NO
SIGNIFICANT WEATHER AND/OR OBSTRUCTIONS TO VISIBILITY.


NCZ001-053-055-056-065-067-260800-
WESTERN NORTH CAROLINA
  
CITY           SKY/WX    TMP DP  RH WIND       PRES   REMARKS
ASHEVILLE      CLEAR     66  63  90 CALM      30.20F                  
JEFFERSON      MOCLDY    66  61  85 CALM      30.24F                  
MORGANTON      PTCLDY    71  69  94 CALM      30.19S                  
HICKORY        PTCLDY    71  68  90 CALM      30.14S                  
WILKESBORO     PTCLDY    68  68 100 CALM      30.20S FOG              
RUTHERFORDTON  CLEAR     70  68  94 CALM      30.15S                  
MOUNT AIRY     PTCLDY    70  66  88 CALM      30.17S                  
BOONE          PTCLDY    64  64 100 CALM      30.25F                  
$$
 

SKY/WX - Weather  TMP - Temperature  DP - Dew Point  RH - Humidity
WIND - Wind Direction/Speed PRES - Barometric Pressure VSB - Visibility
WCI - Wind Chill Index E13G22 Wind - East Wind 13 mph/Gusts of 22 mph

Trending Headlines

Tamarack Radar Loop



Tamarack Quick Facts


National Two Day Weather Forecast


E-mail the Tamarack Weather Forecast

Voice your opinion or tell us about page issues...